Weather History for KGVL - February, 2013

Change the Weather History Date:

Monday, February 25, 2013

  Actual Average Record
Temperature  
Mean Temperature 42 °F 48 °F  
Max Temperature 48 °F 57 °F 79 °F (1930)
Min Temperature 36 °F 38 °F 6 °F (1967)
Degree Days  
Heating Degree Days 22 17  
Month to date heating degree days 496  
Since 1 July heating degree days 2414  
Moisture  
Dew Point 30 °F    
Average Humidity 67    
Maximum Humidity 100    
Minimum Humidity 44    
Precipitation  
Precipitation 0.02 in 0.19 in 2.95 in (1961)
Month to date precipitation 4.24  
Year to date precipitation 9.27  
Sea Level Pressure  
Sea Level Pressure 29.97 in    
Wind  
Wind Speed 11 mph (East)    
Max Wind Speed 20 mph    
Max Gust Speed 30 mph    
Visibility 7 miles    
Events Rain    
T = Trace of Precipitation, MM = Missing Value Source: NWS Daily Summary

Daily Weather History Graph

Daily Weather History Graph

Search for Another Location

Airport or City:

Trip Planner

Search our weather history database for the weather conditions in past years. The results will help you decide how hot, cold, wet, or windy it might be!

Date:

Astronomy

Feb. 25, 2013 Rise Set
Actual Time 7:08 AM EST 6:28 PM EST
Civil Twilight 6:43 AM EST 6:53 PM EST
Nautical Twilight 6:14 AM EST 7:22 PM EST
Astronomical Twilight 5:45 AM EST 7:51 PM EST
Moon 6:37 PM EST (2/25) 6:40 AM EST (2/25)
Length of Visible Light 12h 10m
Length of Day
11h 19m
Full, 100% of the Moon is Illuminated
Feb 25
Full
Feb 25
Full
Mar 4
Last Quarter
Mar 11
New
Mar 19
First Quarter

Hourly Weather History & Observations

Time (EST) Temp. Windchill Dew Point Humidity Pressure Visibility Wind Dir Wind Speed Gust Speed Precip Events Conditions
12:53 AM 44.1 °F 41.5 °F 24.1 °F 45% 29.96 in 10.0 mi NNE 4.6 mph - N/A   Clear
1:53 AM 44.1 °F 41.5 °F 26.1 °F 49% 29.96 in 10.0 mi NNE 4.6 mph - N/A   Clear
2:53 AM 44.1 °F 42.5 °F 26.1 °F 49% 29.96 in 10.0 mi ENE 3.5 mph - N/A   Clear
3:53 AM 46.0 °F 41.4 °F 25.0 °F 44% 29.95 in 10.0 mi East 9.2 mph - N/A   Clear
4:53 AM 45.0 °F 38.9 °F 25.0 °F 46% 29.97 in 10.0 mi East 12.7 mph - N/A   Clear
5:53 AM 44.1 °F 38.1 °F 25.0 °F 47% 29.99 in 10.0 mi ENE 11.5 mph 20.7 mph N/A   Clear
6:53 AM 44.1 °F 37.4 °F 25.0 °F 47% 30.01 in 10.0 mi East 13.8 mph - N/A   Clear
7:53 AM 43.0 °F 36.8 °F 25.0 °F 49% 30.04 in 10.0 mi East 11.5 mph 20.7 mph N/A   Clear
8:53 AM 44.1 °F 37.4 °F 25.0 °F 47% 30.07 in 10.0 mi East 13.8 mph 19.6 mph N/A   Mostly Cloudy
9:53 AM 44.1 °F 36.8 °F 24.1 °F 45% 30.07 in 10.0 mi ENE 16.1 mph 26.5 mph N/A   Clear
10:53 AM 43.0 °F 35.4 °F 24.1 °F 47% 30.06 in 10.0 mi East 16.1 mph 24.2 mph N/A   Clear
11:53 AM 44.1 °F 37.1 °F 24.1 °F 45% 30.04 in 10.0 mi East 15.0 mph 23.0 mph N/A   Overcast
1:53 PM 46.0 °F 39.9 °F 25.0 °F 44% 29.99 in 10.0 mi ENE 13.8 mph - N/A   Overcast
2:53 PM 48.0 °F - 27.0 °F 44% 29.99 in 10.0 mi East 12.7 mph - N/A   Overcast
3:53 PM 48.9 °F - 28.9 °F 46% 29.96 in 10.0 mi East 13.8 mph 19.6 mph N/A   Overcast
4:38 PM 48.2 °F - 28.4 °F 46% 29.95 in 10.0 mi East 15.0 mph 23.0 mph N/A   Overcast
4:53 PM 46.9 °F - 28.0 °F 48% 29.95 in 10.0 mi East 17.3 mph 25.3 mph N/A   Overcast
5:53 PM 46.0 °F 39.6 °F 28.9 °F 51% 29.93 in 10.0 mi East 15.0 mph 24.2 mph N/A   Overcast
6:53 PM 44.1 °F 35.9 °F 30.9 °F 60% 29.94 in 10.0 mi East 19.6 mph 24.2 mph N/A   Overcast
7:53 PM 41.0 °F 32.5 °F 34.0 °F 76% 29.96 in 5.0 mi East 17.3 mph 27.6 mph N/A   Haze
8:45 PM 39.2 °F 32.0 °F 35.6 °F 87% 29.95 in 3.0 mi ENE 11.5 mph - 0.00 in   Overcast
8:49 PM 39.2 °F 31.6 °F 35.6 °F 87% 29.95 in 2.5 mi East 12.7 mph - 0.00 in   Overcast
8:53 PM 39.0 °F 31.4 °F 37.0 °F 93% 29.96 in 2.5 mi East 12.7 mph - 0.00 in   Overcast
9:22 PM 37.4 °F 28.2 °F 37.4 °F 100% 29.95 in 1.8 mi East 16.1 mph - 0.00 in Rain Light Rain
9:30 PM 37.4 °F 28.5 °F 37.4 °F 100% 29.95 in 2.0 mi East 15.0 mph - 0.00 in Rain Light Rain
9:41 PM 37.4 °F 27.8 °F 35.6 °F 93% 29.94 in 1.8 mi East 17.3 mph - 0.01 in Rain Light Rain
9:53 PM 37.9 °F 29.2 °F 37.0 °F 97% 29.94 in 1.8 mi East 15.0 mph 24.2 mph 0.01 in Rain Light Rain
10:09 PM 37.4 °F 28.9 °F 37.4 °F 100% 29.93 in 2.0 mi East 13.8 mph - 0.00 in Rain Light Rain
10:23 PM 37.4 °F 27.5 °F 35.6 °F 93% 29.93 in 2.5 mi East 18.4 mph 25.3 mph 0.00 in Rain Light Rain
10:26 PM 37.4 °F 28.5 °F 35.6 °F 93% 29.93 in 3.0 mi East 15.0 mph 25.3 mph 0.00 in Rain Light Rain
10:53 PM 37.0 °F 27.4 °F 36.0 °F 96% 29.94 in 3.0 mi ENE 17.3 mph 24.2 mph 0.00 in Rain Light Rain
11:38 PM 37.4 °F 27.8 °F 35.6 °F 93% 29.91 in 4.0 mi East 17.3 mph 29.9 mph 0.01 in Rain Light Rain
11:53 PM 36.0 °F 26.3 °F 35.1 °F 97% 29.91 in 3.0 mi East 16.1 mph 25.3 mph 0.01 in Rain Light Rain